����������;��������(kVARh)
2018-12-03 00:00;0
2018-12-03 00:15;0,75
2018-12-03 00:30;2,2
2018-12-03 00:45;2,9
2018-12-03 01:00;2,1
2018-12-03 01:15;1,4
2018-12-03 01:30;0
2018-12-03 01:45;1,65
2018-12-03 02:00;0
2018-12-03 02:15;0,1
2018-12-03 02:30;0
2018-12-03 02:45;0,1
2018-12-03 03:00;0,25
2018-12-03 03:15;1,5
2018-12-03 03:30;9,75
2018-12-03 03:45;9,3
2018-12-03 04:00;9,8
2018-12-03 04:15;9,05
2018-12-03 04:30;9,55
2018-12-03 04:45;11,6
2018-12-03 05:00;11,3
2018-12-03 05:15;10,8
2018-12-03 05:30;23,9
2018-12-03 05:45;24,5
2018-12-03 06:00;25,05
2018-12-03 06:15;23,3
2018-12-03 06:30;18,1
2018-12-03 06:45;16,35
2018-12-03 07:00;13,5
2018-12-03 07:15;14,25
2018-12-03 07:30;13,45
2018-12-03 07:45;42,65
2018-12-03 08:00;26,65
2018-12-03 08:15;23,6
2018-12-03 08:30;19,95
2018-12-03 08:45;36,2
2018-12-03 09:00;40,15
2018-12-03 09:15;44,7
2018-12-03 09:30;53
2018-12-03 09:45;50
2018-12-03 10:00;61,85
2018-12-03 10:15;66,05
2018-12-03 10:30;66,75
2018-12-03 10:45;72,95
2018-12-03 11:00;70,1
2018-12-03 11:15;82,15
2018-12-03 11:30;87,25
2018-12-03 11:45;80,7
2018-12-03 12:00;82,15
2018-12-03 12:15;87,9
2018-12-03 12:30;82,65
2018-12-03 12:45;71,2
2018-12-03 13:00;79,2
2018-12-03 13:15;77,35
2018-12-03 13:30;73,5
2018-12-03 13:45;78,7
2018-12-03 14:00;75,5
2018-12-03 14:15;76
2018-12-03 14:30;82,55
2018-12-03 14:45;82,4
2018-12-03 15:00;78,3
2018-12-03 15:15;82,1
2018-12-03 15:30;73,2
2018-12-03 15:45;73,15
2018-12-03 16:00;72,2
2018-12-03 16:15;69,55
2018-12-03 16:30;66,1
2018-12-03 16:45;62
2018-12-03 17:00;55,85
2018-12-03 17:15;53,35
2018-12-03 17:30;45,7
2018-12-03 17:45;44,5
2018-12-03 18:00;41,95
2018-12-03 18:15;40,55
2018-12-03 18:30;37,85
2018-12-03 18:45;37,5
2018-12-03 19:00;36,55
2018-12-03 19:15;28,25
2018-12-03 19:30;31,1
2018-12-03 19:45;24,05
2018-12-03 20:00;20,45
2018-12-03 20:15;17,5
2018-12-03 20:30;11,2
2018-12-03 20:45;9,35
2018-12-03 21:00;6,75
2018-12-03 21:15;5,75
2018-12-03 21:30;6,8
2018-12-03 21:45;3,35
2018-12-03 22:00;2,7
2018-12-03 22:15;2,7
2018-12-03 22:30;5,05
2018-12-03 22:45;4,9
2018-12-03 23:00;7,2
2018-12-03 23:15;2,3
2018-12-03 23:30;0,4
2018-12-03 23:45;0,65
2018-12-04 00:00;0,2
2018-12-04 00:15;0,2
2018-12-04 00:30;1,7
2018-12-04 00:45;2,65
2018-12-04 01:00;1,4
2018-12-04 01:15;2,4
2018-12-04 01:30;3,1
2018-12-04 01:45;1
2018-12-04 02:00;2,75
2018-12-04 02:15;3,4
2018-12-04 02:30;3,35
2018-12-04 02:45;3,15
2018-12-04 03:00;4,95
2018-12-04 03:15;4,15
2018-12-04 03:30;5,95
2018-12-04 03:45;4,7
2018-12-04 04:00;7,05
2018-12-04 04:15;13,35
2018-12-04 04:30;14,25
2018-12-04 04:45;15,65
2018-12-04 05:00;14,95
2018-12-04 05:15;14,7
2018-12-04 05:30;11,3
2018-12-04 05:45;19
2018-12-04 06:00;26,95
2018-12-04 06:15;29,05
2018-12-04 06:30;26,75
2018-12-04 06:45;22,4
2018-12-04 07:00;17,6
2018-12-04 07:15;14,7
2018-12-04 07:30;15,45
2018-12-04 07:45;38,35
2018-12-04 08:00;25,55
2018-12-04 08:15;23,65
2018-12-04 08:30;19,35
2018-12-04 08:45;28,7
2018-12-04 09:00;24,9
2018-12-04 09:15;34,75
2018-12-04 09:30;36,9
2018-12-04 09:45;35,6
2018-12-04 10:00;43,8
2018-12-04 10:15;43,8
2018-12-04 10:30;45,9
2018-12-04 10:45;52,05
2018-12-04 11:00;49,05
2018-12-04 11:15;54,7
2018-12-04 11:30;65,35
2018-12-04 11:45;57,05
2018-12-04 12:00;65,15
2018-12-04 12:15;60,55
2018-12-04 12:30;62,9
2018-12-04 12:45;63,7
2018-12-04 13:00;62,1
2018-12-04 13:15;63,7
2018-12-04 13:30;55,6
2018-12-04 13:45;57,7
2018-12-04 14:00;54,3
2018-12-04 14:15;57,8
2018-12-04 14:30;53,85
2018-12-04 14:45;55,05
2018-12-04 15:00;53,8
2018-12-04 15:15;56,45
2018-12-04 15:30;53,15
2018-12-04 15:45;49,75
2018-12-04 16:00;46,25
2018-12-04 16:15;46,35
2018-12-04 16:30;45,55
2018-12-04 16:45;50,25
2018-12-04 17:00;44
2018-12-04 17:15;38,65
2018-12-04 17:30;37,15
2018-12-04 17:45;45,2
2018-12-04 18:00;47,4
2018-12-04 18:15;44,2
2018-12-04 18:30;46,4
2018-12-04 18:45;42,35
2018-12-04 19:00;40
2018-12-04 19:15;35,85
2018-12-04 19:30;33,5
2018-12-04 19:45;34,45
2018-12-04 20:00;32,85
2018-12-04 20:15;31,3
2018-12-04 20:30;29,2
2018-12-04 20:45;27,35
2018-12-04 21:00;23,45
2018-12-04 21:15;17,45
2018-12-04 21:30;15,7
2018-12-04 21:45;9,8
2018-12-04 22:00;8,6
2018-12-04 22:15;8,25
2018-12-04 22:30;10,85
2018-12-04 22:45;12,5
2018-12-04 23:00;11,25
2018-12-04 23:15;7,8
2018-12-04 23:30;5,15
2018-12-04 23:45;5,95
2018-12-05 00:00;6,15
2018-12-05 00:15;6,35
2018-12-05 00:30;5,65
2018-12-05 00:45;11,45
2018-12-05 01:00;18,85
2018-12-05 01:15;18,2
2018-12-05 01:30;18,2
2018-12-05 01:45;17,1
2018-12-05 02:00;14,5
2018-12-05 02:15;9,5
2018-12-05 02:30;8,5
2018-12-05 02:45;7
2018-12-05 03:00;8,1
2018-12-05 03:15;8,6
2018-12-05 03:30;6,85
2018-12-05 03:45;6,55
2018-12-05 04:00;5,85
2018-12-05 04:15;3,3
2018-12-05 04:30;6,8
2018-12-05 04:45;6,8
2018-12-05 05:00;6,8
2018-12-05 05:15;7,55
2018-12-05 05:30;8,2
2018-12-05 05:45;6,1
2018-12-05 06:00;6,5
2018-12-05 06:15;17,3
2018-12-05 06:30;23,35
2018-12-05 06:45;23,4
2018-12-05 07:00;21,15
2018-12-05 07:15;17,3
2018-12-05 07:30;17,15
2018-12-05 07:45;55,65
2018-12-05 08:00;20,95
2018-12-05 08:15;24,75
2018-12-05 08:30;26,5
2018-12-05 08:45;33,65
2018-12-05 09:00;32,05
2018-12-05 09:15;42,5
2018-12-05 09:30;47,9
2018-12-05 09:45;42,5
2018-12-05 10:00;53,6
2018-12-05 10:15;51,9
2018-12-05 10:30;57
2018-12-05 10:45;63,4
2018-12-05 11:00;59,35
2018-12-05 11:15;59,3
2018-12-05 11:30;65,55
2018-12-05 11:45;65,1
2018-12-05 12:00;65
2018-12-05 12:15;73,3
2018-12-05 12:30;68,45
2018-12-05 12:45;74,55
2018-12-05 13:00;80,15
2018-12-05 13:15;72,6
2018-12-05 13:30;73,5
2018-12-05 13:45;71,25
2018-12-05 14:00;71,75
2018-12-05 14:15;71
2018-12-05 14:30;62,2
2018-12-05 14:45;66
2018-12-05 15:00;62,95
2018-12-05 15:15;69,5
2018-12-05 15:30;61,3
2018-12-05 15:45;57,4
2018-12-05 16:00;52,3
2018-12-05 16:15;50,6
2018-12-05 16:30;53,5
2018-12-05 16:45;52,3
2018-12-05 17:00;46,65
2018-12-05 17:15;45,9
2018-12-05 17:30;38,9
2018-12-05 17:45;39,45
2018-12-05 18:00;38,45
2018-12-05 18:15;33,75
2018-12-05 18:30;32,65
2018-12-05 18:45;36,5
2018-12-05 19:00;35,25
2018-12-05 19:15;32,85
2018-12-05 19:30;28,2
2018-12-05 19:45;26,75
2018-12-05 20:00;21,8
2018-12-05 20:15;20,2
2018-12-05 20:30;15,5
2018-12-05 20:45;11,35
2018-12-05 21:00;17,9
2018-12-05 21:15;14,75
2018-12-05 21:30;10,55
2018-12-05 21:45;5,65
2018-12-05 22:00;1,85
2018-12-05 22:15;1,9
2018-12-05 22:30;1,2
2018-12-05 22:45;2,75
2018-12-05 23:00;1
2018-12-05 23:15;0,25
2018-12-05 23:30;0,15
2018-12-05 23:45;2,2
2018-12-06 00:00;1,25
2018-12-06 00:15;1,45
2018-12-06 00:30;3,15
2018-12-06 00:45;2,3
2018-12-06 01:00;3,15
2018-12-06 01:15;5,55
2018-12-06 01:30;8,8
2018-12-06 01:45;18,2
2018-12-06 02:00;14
2018-12-06 02:15;13,05
2018-12-06 02:30;14,35
2018-12-06 02:45;13,65
2018-12-06 03:00;13,7
2018-12-06 03:15;12,45
2018-12-06 03:30;10,6
2018-12-06 03:45;9,75
2018-12-06 04:00;8,05
2018-12-06 04:15;8,05
2018-12-06 04:30;8,2
2018-12-06 04:45;10,05
2018-12-06 05:00;11,65
2018-12-06 05:15;12,1
2018-12-06 05:30;12,3
2018-12-06 05:45;11,15
2018-12-06 06:00;12,5
2018-12-06 06:15;10
2018-12-06 06:30;12,35
2018-12-06 06:45;30,1
2018-12-06 07:00;27,9
2018-12-06 07:15;27,3
2018-12-06 07:30;24,9
2018-12-06 07:45;52,65
2018-12-06 08:00;25,65
2018-12-06 08:15;36,15
2018-12-06 08:30;29,8
2018-12-06 08:45;41,75
2018-12-06 09:00;41,3
2018-12-06 09:15;43,55
2018-12-06 09:30;47,65
2018-12-06 09:45;53,4
2018-12-06 10:00;47
2018-12-06 10:15;53,25
2018-12-06 10:30;67,45
2018-12-06 10:45;67,7
2018-12-06 11:00;67
2018-12-06 11:15;76,15
2018-12-06 11:30;73,15
2018-12-06 11:45;69,1
2018-12-06 12:00;74,2
2018-12-06 12:15;73,95
2018-12-06 12:30;72
2018-12-06 12:45;79,15
2018-12-06 13:00;74,5
2018-12-06 13:15;77,45
2018-12-06 13:30;77,05
2018-12-06 13:45;72
2018-12-06 14:00;77
2018-12-06 14:15;72,5
2018-12-06 14:30;75,5
2018-12-06 14:45;73,85
2018-12-06 15:00;70,35
2018-12-06 15:15;76,9
2018-12-06 15:30;66,3
2018-12-06 15:45;66,4
2018-12-06 16:00;62,05
2018-12-06 16:15;60,15
2018-12-06 16:30;56,05
2018-12-06 16:45;54
2018-12-06 17:00;54,5
2018-12-06 17:15;50,9
2018-12-06 17:30;43,75
2018-12-06 17:45;40,95
2018-12-06 18:00;39,45
2018-12-06 18:15;35,15
2018-12-06 18:30;32,05
2018-12-06 18:45;27
2018-12-06 19:00;29,1
2018-12-06 19:15;23,2
2018-12-06 19:30;21,6
2018-12-06 19:45;21,9
2018-12-06 20:00;16,85
2018-12-06 20:15;14,6
2018-12-06 20:30;9
2018-12-06 20:45;10,6
2018-12-06 21:00;9,85
2018-12-06 21:15;11,5
2018-12-06 21:30;17,1
2018-12-06 21:45;13,75
2018-12-06 22:00;7,95
2018-12-06 22:15;3,05
2018-12-06 22:30;3,45
2018-12-06 22:45;3,5
2018-12-06 23:00;3,5
2018-12-06 23:15;2,95
2018-12-06 23:30;4,55
2018-12-06 23:45;6
2018-12-07 00:00;5,8
2018-12-07 00:15;4,8
2018-12-07 00:30;0
2018-12-07 00:45;0
2018-12-07 01:00;0
2018-12-07 01:15;0
2018-12-07 01:30;0,1
2018-12-07 01:45;0,1
2018-12-07 02:00;8,45
2018-12-07 02:15;9,25
2018-12-07 02:30;9,8
2018-12-07 02:45;10,85
2018-12-07 03:00;11,1
2018-12-07 03:15;10,45
2018-12-07 03:30;8,95
2018-12-07 03:45;23,15
2018-12-07 04:00;25,8
2018-12-07 04:15;25,7
2018-12-07 04:30;25,4
2018-12-07 04:45;23,15
2018-12-07 05:00;19,2
2018-12-07 05:15;16,7
2018-12-07 05:30;16,3
2018-12-07 05:45;16,3
2018-12-07 06:00;16,65
2018-12-07 06:15;15,75
2018-12-07 06:30;19,95
2018-12-07 06:45;18,35
2018-12-07 07:00;15,75
2018-12-07 07:15;16,6
2018-12-07 07:30;26,05
2018-12-07 07:45;57,4
2018-12-07 08:00;36,75
2018-12-07 08:15;36,7
2018-12-07 08:30;29
2018-12-07 08:45;42,7
2018-12-07 09:00;44,45
2018-12-07 09:15;47,7
2018-12-07 09:30;50,55
2018-12-07 09:45;54,15
2018-12-07 10:00;51,45
2018-12-07 10:15;50,9
2018-12-07 10:30;56,15
2018-12-07 10:45;64,3
2018-12-07 11:00;60,95
2018-12-07 11:15;68,8
2018-12-07 11:30;75,75
2018-12-07 11:45;75,25
2018-12-07 12:00;73,7
2018-12-07 12:15;75,45
2018-12-07 12:30;76,5
2018-12-07 12:45;74,45
2018-12-07 13:00;70,55
2018-12-07 13:15;78,75
2018-12-07 13:30;79,8
2018-12-07 13:45;69,7
2018-12-07 14:00;67,8
2018-12-07 14:15;73,05
2018-12-07 14:30;70,25
2018-12-07 14:45;68,2
2018-12-07 15:00;73,6
2018-12-07 15:15;71,2
2018-12-07 15:30;49
2018-12-07 15:45;41,9
2018-12-07 16:00;44,8
2018-12-07 16:15;44,2
2018-12-07 16:30;43
2018-12-07 16:45;42,6
2018-12-07 17:00;40,95
2018-12-07 17:15;36,25
2018-12-07 17:30;31,55
2018-12-07 17:45;26,75
2018-12-07 18:00;26,2
2018-12-07 18:15;34,65
2018-12-07 18:30;37,25
2018-12-07 18:45;30,7
2018-12-07 19:00;26,5
2018-12-07 19:15;25,9
2018-12-07 19:30;23,15
2018-12-07 19:45;19,85
2018-12-07 20:00;20,1
2018-12-07 20:15;25,8
2018-12-07 20:30;26
2018-12-07 20:45;26,15
2018-12-07 21:00;27,05
2018-12-07 21:15;32,7
2018-12-07 21:30;34,9
2018-12-07 21:45;26,2
2018-12-07 22:00;21,4
2018-12-07 22:15;16,5
2018-12-07 22:30;7,85
2018-12-07 22:45;7,75
2018-12-07 23:00;9,85
2018-12-07 23:15;8,05
2018-12-07 23:30;9,65
2018-12-07 23:45;5,4
2018-12-08 00:00;0,85
2018-12-08 00:15;1,8
2018-12-08 00:30;0,05
2018-12-08 00:45;0
2018-12-08 01:00;0,05
2018-12-08 01:15;0,3
2018-12-08 01:30;0,6
2018-12-08 01:45;1,25
2018-12-08 02:00;1,15
2018-12-08 02:15;0,45
2018-12-08 02:30;0,2
2018-12-08 02:45;0
2018-12-08 03:00;0
2018-12-08 03:15;0
2018-12-08 03:30;0
2018-12-08 03:45;0
2018-12-08 04:00;0
2018-12-08 04:15;0
2018-12-08 04:30;0
2018-12-08 04:45;0
2018-12-08 05:00;0
2018-12-08 05:15;0,05
2018-12-08 05:30;0
2018-12-08 05:45;0
2018-12-08 06:00;0
2018-12-08 06:15;0
2018-12-08 06:30;0
2018-12-08 06:45;0
2018-12-08 07:00;0
2018-12-08 07:15;0
2018-12-08 07:30;0
2018-12-08 07:45;0
2018-12-08 08:00;0
2018-12-08 08:15;0
2018-12-08 08:30;0
2018-12-08 08:45;0
2018-12-08 09:00;0
2018-12-08 09:15;0
2018-12-08 09:30;0
2018-12-08 09:45;0
2018-12-08 10:00;0
2018-12-08 10:15;0,4
2018-12-08 10:30;1,15
2018-12-08 10:45;3
2018-12-08 11:00;2,75
2018-12-08 11:15;3,55
2018-12-08 11:30;3,6
2018-12-08 11:45;2,8
2018-12-08 12:00;5
2018-12-08 12:15;5,55
2018-12-08 12:30;4,7
2018-12-08 12:45;4,85
2018-12-08 13:00;4,25
2018-12-08 13:15;3,65
2018-12-08 13:30;2,9
2018-12-08 13:45;5
2018-12-08 14:00;3
2018-12-08 14:15;4,5
2018-12-08 14:30;3,95
2018-12-08 14:45;3,8
2018-12-08 15:00;4
2018-12-08 15:15;4,05
2018-12-08 15:30;4,8
2018-12-08 15:45;4,05
2018-12-08 16:00;4,15
2018-12-08 16:15;5,95
2018-12-08 16:30;6,4
2018-12-08 16:45;8,05
2018-12-08 17:00;7,7
2018-12-08 17:15;8,35
2018-12-08 17:30;4,15
2018-12-08 17:45;3,4
2018-12-08 18:00;3,2
2018-12-08 18:15;1,3
2018-12-08 18:30;5,65
2018-12-08 18:45;7,6
2018-12-08 19:00;6,4
2018-12-08 19:15;8
2018-12-08 19:30;7,6
2018-12-08 19:45;6,3
2018-12-08 20:00;7,3
2018-12-08 20:15;6,45
2018-12-08 20:30;6,85
2018-12-08 20:45;5,2
2018-12-08 21:00;5,2
2018-12-08 21:15;8
2018-12-08 21:30;4,95
2018-12-08 21:45;5,5
2018-12-08 22:00;2,15
2018-12-08 22:15;1,35
2018-12-08 22:30;1,9
2018-12-08 22:45;1,75
2018-12-08 23:00;4
2018-12-08 23:15;1,2
2018-12-08 23:30;3,2
2018-12-08 23:45;4,75
2018-12-09 00:00;0
2018-12-09 00:15;0,25
2018-12-09 00:30;0,3
2018-12-09 00:45;0
2018-12-09 01:00;0
2018-12-09 01:15;0
2018-12-09 01:30;0
2018-12-09 01:45;0
2018-12-09 02:00;0,15
2018-12-09 02:15;0,7
2018-12-09 02:30;0,6
2018-12-09 02:45;1,25
2018-12-09 03:00;1,05
2018-12-09 03:15;1,3
2018-12-09 03:30;1,35
2018-12-09 03:45;1
2018-12-09 04:00;1,4
2018-12-09 04:15;1,4
2018-12-09 04:30;0
2018-12-09 04:45;0,3
2018-12-09 05:00;0,2
2018-12-09 05:15;0,05
2018-12-09 05:30;0,05
2018-12-09 05:45;0
2018-12-09 06:00;0,05
2018-12-09 06:15;0
2018-12-09 06:30;0
2018-12-09 06:45;0
2018-12-09 07:00;0
2018-12-09 07:15;0,25
2018-12-09 07:30;0,1
2018-12-09 07:45;0
2018-12-09 08:00;1,15
2018-12-09 08:15;5
2018-12-09 08:30;5,35
2018-12-09 08:45;4,85
2018-12-09 09:00;2,05
2018-12-09 09:15;1,9
2018-12-09 09:30;1,6
2018-12-09 09:45;3,4
2018-12-09 10:00;2,9
2018-12-09 10:15;2,65
2018-12-09 10:30;2,35
2018-12-09 10:45;1,85
2018-12-09 11:00;1,5
2018-12-09 11:15;0,25
2018-12-09 11:30;0,4
2018-12-09 11:45;0,95
2018-12-09 12:00;2,35
2018-12-09 12:15;4,7
2018-12-09 12:30;7,7
2018-12-09 12:45;7,45
2018-12-09 13:00;8,2
2018-12-09 13:15;10,35
2018-12-09 13:30;9,9
2018-12-09 13:45;10,2
2018-12-09 14:00;10,8
2018-12-09 14:15;9,45
2018-12-09 14:30;8,3
2018-12-09 14:45;9,75
2018-12-09 15:00;9,3
2018-12-09 15:15;8,6
2018-12-09 15:30;8,6
2018-12-09 15:45;6,7
2018-12-09 16:00;8,35
2018-12-09 16:15;8,25
2018-12-09 16:30;11
2018-12-09 16:45;9,35
2018-12-09 17:00;7,85
2018-12-09 17:15;8,2
2018-12-09 17:30;5,6
2018-12-09 17:45;6,6
2018-12-09 18:00;6,65
2018-12-09 18:15;5,5
2018-12-09 18:30;6,25
2018-12-09 18:45;6,8
2018-12-09 19:00;3,9
2018-12-09 19:15;3,15
2018-12-09 19:30;1,95
2018-12-09 19:45;0,85
2018-12-09 20:00;0,6
2018-12-09 20:15;0,55
2018-12-09 20:30;0,8
2018-12-09 20:45;1,5
2018-12-09 21:00;2,4
2018-12-09 21:15;2,3
2018-12-09 21:30;2,7
2018-12-09 21:45;3,15
2018-12-09 22:00;0,3
2018-12-09 22:15;0,05
2018-12-09 22:30;0,45
2018-12-09 22:45;0
2018-12-09 23:00;0,6
2018-12-09 23:15;0,05
2018-12-09 23:30;0
2018-12-09 23:45;0,1

